Вернуться в каталог

SL-8 DEB

АктивенLEO
NORAD 21253·DEBRIS·🇷🇺 Russia

Запущен Feb 12, 1991 с Plesetsk Cosmodrome

Loading…

Ближайшие Пролёты (ближайшие 24 часа)

TLE

СвежийSource: Space-Track

Эпоха: Sep 14, 2026, 12:48 UTC

1 21253U 91009BL  26257.53390432  .00000002  00000-0  16914-3 0  9999
2 21253  74.1149 316.4268 0148211 260.6646 165.1380 12.14613657575162

Отслеживайте SL-8 DEB в реальном времени с AllMySat

Download on the App Store